IW9CTJ-13 Weather Reports


time (UTC)temp
F
wind
direction
speed
knots
gust
knots
rain 1hr
in
rain 24hr
in
rain mn
in
humidity
%
barometer
mb
20260507144550 66 40 8.7 18.2 0.00 0.00 0.00 75 1010.0
20260507143057 66 72 9.6 16.5 0.00 0.00 0.00 75 1009.9
20260507141555 66 30 7.8 18.2 0.00 0.00 0.00 75 1010.5
20260507140044 66 33 12.2 21.7 0.00 0.00 0.00 75 1010.3
20260507134546 66 51 7.8 21.7 0.00 0.00 0.00 73 1010.7
20260507133109 67 44 13.0 24.3 0.00 0.00 0.00 73 1010.7
20260507131546 67 78 11.3 22.6 0.00 0.00 0.00 70 1010.5
20260507130053 67 51 12.2 24.3 0.00 0.00 0.00 71 1011.2
20260507124542 67 57 13.9 22.6 0.00 0.00 0.00 70 1011.3
20260507123041 68 34 13.9 26.9 0.00 0.00 0.00 69 1011.2
20260507121541 69 20 9.6 20.9 0.00 0.00 0.00 67 1011.4
20260507120038 69 35 13.0 27.8 0.00 0.00 0.00 67 1011.5
20260507114547 68 63 14.8 26.1 0.00 0.00 0.00 68 1011.6
20260507113037 68 29 13.0 22.6 0.00 0.00 0.00 67 1011.2
20260507111534 69 53 11.3 24.3 0.00 0.00 0.00 67 1011.9
20260507110040 69 46 12.2 27.8 0.00 0.00 0.00 66 1012.2
20260507104533 68 49 12.2 23.5 0.00 0.00 0.00 66 1012.3
20260507103038 69 37 11.3 27.8 0.00 0.00 0.00 65 1012.6
20260507101537 68 40 16.5 26.1 0.00 0.00 0.00 65 1012.4
20260507100035 68 36 13.0 21.7 0.00 0.00 0.00 64 1012.5
20260507094536 69 49 9.6 23.5 0.00 0.00 0.00 62 1012.6
20260507093028 68 28 13.0 26.9 0.00 0.00 0.00 62 1012.7
20260507091532 68 65 12.2 23.5 0.00 0.00 0.00 65 1012.8
20260507090025 67 66 13.0 20.9 0.00 0.00 0.00 67 1012.9
20260507084522 67 52 8.7 25.2 0.00 0.00 0.00 69 1012.7
20260507083022 66 64 13.9 25.2 0.00 0.00 0.00 71 1012.7
20260507081523 67 63 11.3 23.5 0.00 0.00 0.00 70 1012.3
20260507080020 66 57 13.9 23.5 0.00 0.00 0.00 70 1012.3
20260507074518 66 42 11.3 23.5 0.00 0.00 0.00 73 1012.6
20260507073017 66 46 11.3 22.6 0.00 0.00 0.00 73 1012.6
20260507071519 66 21 10.4 21.7 0.00 0.00 0.00 74 1012.8
20260507070026 66 74 8.7 18.2 0.00 0.00 0.00 74 1012.8
20260507064515 65 76 8.7 17.4 0.00 0.00 0.00 76 1013.0
20260507063011 64 60 11.3 18.2 0.00 0.00 0.00 81 1013.0
20260507061509 64 30 9.6 17.4 0.00 0.00 0.00 84 1012.9
20260507060012 63 28 8.7 20.0 0.00 0.00 0.00 85 1013.1
20260507054505 63 66 10.4 17.4 0.00 0.00 0.00 85 1013.2
20260507053005 63 66 7.0 16.5 0.00 0.00 0.00 85 1013.1
20260507051503 63 68 7.0 12.2 0.00 0.00 0.00 85 1013.1
20260507050006 63 32 7.0 13.9 0.00 0.00 0.00 85 1013.0
20260507044628 62 41 10.4 15.6 0.00 0.00 0.00 84 1012.8
20260507043059 62 53 7.8 17.4 0.00 0.00 0.00 85 1012.6
20260507041557 62 44 8.7 14.8 0.00 0.00 0.00 84 1012.8
20260507040058 63 59 6.1 13.0 0.00 0.00 0.00 81 1012.7
20260507034554 63 58 3.5 9.6 0.00 0.00 0.00 80 1013.0
20260507033102 63 40 3.5 7.8 0.00 0.00 0.00 80 1013.2
20260507031558 63 75 0.0 0.9 0.00 0.00 0.00 79 1013.2
20260507030106 64 49 0.0 0.9 0.00 0.00 0.00 74 1013.3
20260507024606 64 82 0.0 11.3 0.00 0.00 0.00 74 1013.1
20260507023048 63 40 0.0 0.9 0.00 0.00 0.00 74 1012.7
20260507021554 64 75 1.7 7.8 0.00 0.00 0.00 70 1012.6
20260507020055 64 80 0.0 0.0 0.00 0.00 0.00 66 1012.6
20260507014553 64 96 0.0 0.9 0.00 0.00 0.00 69 1012.7
20260507013043 64 71 0.0 0.0 0.00 0.00 0.00 73 1012.8
20260507011546 64 61 0.0 0.9 0.00 0.00 0.00 73 1013.0
20260507010044 63 76 0.0 3.5 0.00 0.00 0.00 75 1013.3
20260507004537 63 72 0.0 7.0 0.00 0.00 0.00 77 1013.1
20260507003036 63 66 0.0 1.7 0.00 0.00 0.00 77 1013.3
20260507001536 63 51 0.0 7.0 0.00 0.00 0.00 76 1013.6
20260507000034 63 78 0.0 0.9 0.00 0.00 0.00 77 1013.9
20260506234531 63 68 0.0 0.9 0.00 0.00 0.00 78 1014.0
20260506233031 63 61 0.0 0.9 0.00 0.00 0.00 79 1013.9
20260506231528 63 74 0.0 0.0 0.00 0.00 0.00 80 1014.0
20260506230027 63 83 0.0 5.2 0.00 0.00 0.00 80 1014.1
20260506224526 63 71 0.9 7.8 0.00 0.00 0.00 80 1014.0
20260506223023 63 53 0.0 0.9 0.00 0.00 0.00 81 1014.2
20260506221521 63 49 0.9 6.1 0.00 0.00 0.00 81 1014.5
20260506220020 63 54 0.9 8.7 0.00 0.00 0.00 82 1014.3
20260506214519 63 70 0.0 8.7 0.00 0.00 0.00 82 1014.4
20260506213018 63 44 1.7 8.7 0.00 0.00 0.00 83 1014.6
20260506211522 63 53 4.3 8.7 0.00 0.00 0.00 83 1014.7
20260506210019 63 91 0.0 0.9 0.00 0.00 0.00 84 1014.6
20260506204517 63 34 4.3 8.7 0.00 0.00 0.00 84 1014.2
20260506203017 63 65 4.3 10.4 0.00 0.00 0.00 84 1013.8
20260506201519 63 105 1.7 11.3 0.00 0.00 0.00 83 1013.8
20260506200015 63 51 3.5 14.8 0.00 0.00 0.00 83 1013.5
20260506194511 64 45 5.2 10.4 0.00 0.00 0.00 82 1013.2
20260506193009 64 71 4.3 9.6 0.00 0.00 0.00 82 1014.4
20260506191509 64 55 0.0 7.8 0.00 0.00 0.00 82 1014.6
20260506190007 64 65 0.0 4.3 0.00 0.00 0.00 83 1014.6
20260506184506 64 74 0.0 4.3 0.00 0.00 0.00 83 1014.5
20260506183006 64 36 0.0 4.3 0.00 0.00 0.00 83 1014.7
20260506181505 64 82 0.0 4.3 0.00 0.00 0.00 83 1014.7
20260506180005 64 78 0.0 2.6 0.00 0.00 0.00 82 1014.6
20260506174504 64 72 0.9 4.3 0.00 0.00 0.00 82 1014.6
20260506173004 65 135 0.0 3.5 0.00 0.00 0.00 82 1014.4
20260506171503 65 67 0.9 5.2 0.00 0.00 0.00 82 1014.3
20260506170003 65 84 1.7 4.3 0.00 0.00 0.00 81 1014.2
20260506164607 65 84 0.0 5.2 0.00 0.00 0.00 80 1014.3
20260506164501 65 49 0.0 5.2 0.00 0.00 0.00 80 1014.3
20260506163107 65 59 0.9 3.5 0.00 0.00 0.00 79 1014.4
20260506161641 66 84 0.0 4.3 0.00 0.00 0.00 79 1014.4
20260506160111 65 52 1.7 5.2 0.00 0.00 0.00 79 1014.4
20260506154600 66 59 0.0 4.3 0.00 0.00 0.00 78 1014.6
20260506153059 66 61 1.7 5.2 0.00 0.00 0.00 76 1014.6
20260506151557 67 44 0.0 2.6 0.00 0.00 0.00 75 1014.5
20260506150057 67 59 0.9 3.5 0.00 0.00 0.00 74 1014.8